Regional Weather Roundup
Issued by NWS

Home | Current Version | Previous Version | Graphics & Text | Print | Product List | Glossary On
Versions: 1 2 3 4 5 6 7 8 9 10 11 12 13 14 15 16 17 18 19 20 21 22 23 24 25 26 27 28
000
ASUS45 KTFX 171310
RWRMT
MONTANA REGIONAL WEATHER ROUNDUP
NATIONAL WEATHER SERVICE GREAT FALLS MT
600 AM MST SUN DEC 17 2017

NOTE: "FAIR" INDICATES FEW OR NO CLOUDS BELOW 12000 FEET WITH NO
SIGNIFICANT WEATHER AND/OR OBSTRUCTIONS TO VISIBILITY.

MTZ001>007-043-171400-
WEST OF THE DIVIDE

CITY           SKY/WX    TMP DP  RH WIND       PRES   REMARKS
KALISPELL      CLOUDY    26  22  84 S6        30.11S WCI  19
MISSOULA       CLOUDY    16  14  92 E3        30.18S
BUTTE          FOG        0  -3  87 CALM      30.03F VSB 1/2
MULLAN PASS    LGT SNOW  20  16  84 SW8       30.00S FOG     WCI  10
ANACONDA         N/A     19   7  58 S8        30.05S WCI   9
DEER LODGE       N/A     10   7  85 W3        30.09S
EUREKA           N/A     30  18  59 MISG      30.07F
HAMILTON         N/A     21  12  68 S9        30.15F WCI  11
LIBBY            N/A     23  21  93 CALM      30.10F
PLAINS           N/A     22  17  81 CALM      30.16F
RONAN            N/A     19  18  93 SW5       30.14S
$$

MTZ008-052>055-171400-
SOUTHWEST MONTANA

CITY           SKY/WX    TMP DP  RH WIND       PRES   REMARKS
BOZEMAN        FOG        0  -3  87 S3        30.06R VSB 1/4
DILLON         FAIR      14   5  67 SW13      30.04R WCI   0
W YELLOWSTONE  CLOUDY     7   5  92 NW5       30.04S
ENNIS          CLOUDY    12   5  73 S13       30.09R WCI  -3
THREE FORKS      N/A     -5 -11  75 CALM      30.03R VSB 0
TWIN BRIDGES     N/A     13   3  64 CALM      30.05S
$$

MTZ009-010-012-014-046-048-049-054-171400-
EAST SLOPES AND CENTRAL MONTANA

CITY           SKY/WX    TMP DP  RH WIND       PRES   REMARKS
CUT BANK       FAIR      28  19  69 W33G46    29.72R HAZE    WCI  11
GREAT FALLS    FAIR      26  13  57 SW24G35   29.81F WCI  11
MALMSTROM AFB  FAIR      24  16  71 SW16      29.83F WCI  11
HELENA         FAIR      28  12  51 W21G35    30.01F WCI  15
BOWMANS CRNR   FAIR      23  12  62 SW25G36   29.81F WCI   7
CHOTEAU          N/A     34  16  47 SW12G18   29.76S WCI  25
FAIRFIELD      MOCLDY    30  13  48 SW23      29.76F WCI  17
POWER          FAIR      25  13  61 SW21      29.77F WCI  11
RAYNESFORD     FAIR      26  13  56 SW17      29.82F WCI  14
ULM            FAIR      27  15  61 SW15      29.84F WCI  15
$$

MTZ011-013-016-021-045-047-050-051-171400-
NORTH CENTRAL MONTANA

CITY           SKY/WX    TMP DP  RH WIND       PRES   REMARKS
HAVRE          FAIR      24  17  74 SW18      29.78F WCI  10
LEWISTOWN      FAIR      22  10  60 SW13      29.81F WCI  10
N BAR RANCH    FAIR      18   3  53 CALM      29.82S
CHINOOK          N/A     25  16  68 CALM      29.80F
DENTON         FAIR      12   6  77 MISG      29.79F
GEYSER         FAIR      25  13  59 E8        29.80S WCI  16
GRASS RANGE    FAIR      22  10  61 W3        29.79F
STANFORD       FAIR      17   6  60 CALM      29.79F
WINIFRED       MOCLDY    20  11  68 SW6       29.80F WCI  12
$$

MTZ017>020-022>027-061-062-171400-
NORTHEAST MONTANA

CITY           SKY/WX    TMP DP  RH WIND       PRES   REMARKS
GLASGOW        FAIR      16  14  92 SE10      29.87F WCI   4
GLENDIVE       FAIR      19  16  88 S7        29.96F WCI  10
JORDAN           N/A     24  20  84 S12       29.87F WCI  13
SIDNEY         FAIR      16  13  88 S8        29.96F WCI   5
WOLF POINT     FAIR       8   4  83 NE3       29.92F
MALTA          CLEAR     16  12  86 W6        29.86F WCI   7
PLENTYWOOD       N/A     18  12  79 CALM      29.90F
POPLAR           N/A     12  10  92 N3        29.93F
SCOBEY           N/A     14   4  64 S1        29.84F
$$

MTZ028>42-056>058-171400-
SOUTHCENTRAL AND SOUTHEAST MONTANA

CITY           SKY/WX    TMP DP  RH WIND       PRES   REMARKS
BAKER          FAIR      15  14  95 SE3       29.97F
BILLINGS       MOCLDY    23  22  96 SW14      29.91F WCI  11
LIVINGSTON     FAIR      20  14  77 W23       29.93F WCI   3
MILES CITY     MOCLDY    20  20 100 SE9       29.95F WCI   9
BIG TIMBER     CLEAR     21  14  73 W33G41    29.88F HAZE    WCI   2
EKALAKA          N/A     26  20  78 SE3       29.93F
FORSYTH          N/A     21  19  93 CALM      29.93F
HARLOWTON      FAIR      19  13  76 W22       29.85F WCI   3
LAUREL           N/A     21  19  93 W13       29.92F WCI   9
$$

REGIONAL REPORTS...DAKOTAS

CITY           SKY/WX    TMP DP  RH WIND       PRES   REMARKS
WILLISTON      FAIR      15  13  91 CALM      29.95F
MINOT          FAIR      22  16  78 SW13      29.95F WCI  10
DICKINSON      CLOUDY    17  14  88 S5        29.96F
BEACH          FAIR      18  16  93 S5        29.99S
CROSBY         FAIR      19  16  86 S13       29.91F WCI   7
TIOGA          FAIR      16  16 100 CALM      29.94F
BISMARCK       FAIR      20  18  92 CALM      30.03S
GRAND FORKS    FAIR      13  11  92 S8        30.00S WCI   2
FARGO          FAIR      24  22  91 S6        30.04S WCI  17
BUFFALO SD       N/A     24  22  91 W5        29.92F
RAPID CITY     CLOUDY    29  26  89 CALM      30.01S
$$

REGIONAL REPORTS...WYOMING/IDAHO/WASHINGTON

CITY           SKY/WX    TMP DP  RH WIND       PRES   REMARKS
GILLETTE       MOCLDY    23  20  88 S13       29.93F WCI  11
SHERIDAN       FOG       21  20  96 SE5       29.93F VSB 3/4
BUFFALO WY     CLOUDY    18  11  74 SW6       29.90F WCI  10
CODY           FLURRIES  19  13  77 S13G25    29.91F WCI   6
YELLOWSTONE LA   N/A     -8 -13  78 CALM      30.02R
IDAHO FALLS    CLOUDY    19  18  95 CALM      30.16F
SALMON         FAIR       7   3  84 SE3       30.25R
BOISE          FAIR      19  15  84 SE3       30.25S
SPOKANE        LGT SNOW  28  27  96 S10       30.14F FOG     WCI  19
$$

REGIONAL REPORTS...ALBERTA

CITY           SKY/WX    TMP DP  RH WIND       PRES   REMARKS
EDMONTON       PTCLDY    30  14  51 SW9       29.48F WCI  22
CALGARY        MOCLDY    39  12  33 W20G28    29.58F WCI  30
LETHBRIDGE     MOCLDY    36  19  51 W35G48    29.67S WCI  22
MEDICINE HAT   PTCLDY    25  18  74 SW14G21   29.68R WCI  13
$$

REGIONAL REPORTS...SASKATCHEWAN

CITY           SKY/WX    TMP DP  RH WIND       PRES   REMARKS
SWIFT CURRENT  MOCLDY    23  19  86 S16       29.68F WCI  10
REGINA         CLEAR     18  14  86 S10       29.81F WCI   6
SASKATOON      PTCLDY    19  18  93 S9        29.70F WCI   9
$$




USA.gov is the U.S. government's official web portal to all federal, state and local government web resources and services.